sat.trackr.live / text

‹ back to catalog

STARLINK-34420

NORAD 64483 · 2025-133M

PAYLOAD ACTIVE UNKNOWN

§ Identity

Operator
Country
US
Launch date
2025-06-23
Launch site
AFETR
Launch vehicle
Mass (kg)
RCS (m²)

Purposes: comms

External: N2YO · Heavens-Above · Gunter

§ Orbital elements

Epoch: 2026-05-25T02:31:04.757952Z

Period
94.11 min
Inclination
53.1572°
Eccentricity
0.0001019
Mean motion
15.30179758 rev/d
Perigee alt
474.6 km
Apogee alt
476.0 km
Semi-major
6,853.4 km
B*
-8.5104e-5
RAAN
121.4498°
Arg perigee
81.5803°
Mean anomaly
278.5313°
Rev number
5,289

§ Raw data

STARLINK-344201 64483U 25133M   26145.10491618 -.00002877  00000+0 -85104-4 0  99942 64483  53.1572 121.4498 0001019  81.5803 278.5313 15.30179758 52894

JSON: /api/v1/satellites/64483 · /tle

For live sub-satellite position, see the globe view (requires WebGL).

§ Visibility from observer

Set your observer location to see the next 7 days of passes ≥ 10°. The values pass through the URL so the page stays shareable.

No JS? Fill the form by hand. The geolocation button needs JavaScript.